Year,Month,Day,Hour,Minute,Value (Times are PST for temperature in C)
2021,08,13,00,00,24.70
2021,08,13,00,01,24.70
2021,08,13,00,02,24.70
2021,08,13,00,03,24.70
2021,08,13,00,04,24.70
2021,08,13,00,05,24.70
2021,08,13,00,06,24.70
2021,08,13,00,07,24.60
2021,08,13,00,08,24.60
2021,08,13,00,09,24.60
2021,08,13,00,10,24.50
2021,08,13,00,11,24.40
2021,08,13,00,12,24.40
2021,08,13,00,13,24.30
2021,08,13,00,14,24.30
2021,08,13,00,15,24.30
2021,08,13,00,16,24.20
2021,08,13,00,17,24.20
2021,08,13,00,18,24.20
2021,08,13,00,19,24.30
2021,08,13,00,20,24.30
2021,08,13,00,21,24.40
2021,08,13,00,22,24.50
2021,08,13,00,23,24.50
2021,08,13,00,24,24.60
2021,08,13,00,25,24.60
2021,08,13,00,26,24.60
2021,08,13,00,27,24.60
2021,08,13,00,28,24.60
2021,08,13,00,29,24.60
2021,08,13,00,30,24.60
2021,08,13,00,31,24.60
2021,08,13,00,32,24.60
2021,08,13,00,33,24.60
2021,08,13,00,34,24.60
2021,08,13,00,35,24.60
2021,08,13,00,36,24.60
2021,08,13,00,37,24.60
2021,08,13,00,38,24.50
2021,08,13,00,39,24.50
2021,08,13,00,40,24.50
2021,08,13,00,41,24.40
2021,08,13,00,42,24.40
2021,08,13,00,43,24.40
2021,08,13,00,44,24.40
2021,08,13,00,45,24.40
2021,08,13,00,46,24.40
2021,08,13,00,47,24.40
2021,08,13,00,48,24.40
2021,08,13,00,49,24.40
2021,08,13,00,50,24.40
2021,08,13,00,51,24.40
2021,08,13,00,52,24.40
2021,08,13,00,53,24.40
2021,08,13,00,54,24.40
2021,08,13,00,55,24.40
2021,08,13,00,56,24.40
2021,08,13,00,57,24.40
2021,08,13,00,58,24.40
2021,08,13,00,59,24.40
2021,08,13,01,00,24.40
2021,08,13,01,01,24.40
2021,08,13,01,02,24.40
2021,08,13,01,03,24.40
2021,08,13,01,04,24.40
2021,08,13,01,05,24.40
2021,08,13,01,06,24.40
2021,08,13,01,07,24.30
2021,08,13,01,08,24.40
2021,08,13,01,09,24.30
2021,08,13,01,10,24.30
2021,08,13,01,11,24.30
2021,08,13,01,12,24.30
2021,08,13,01,13,24.30
2021,08,13,01,14,24.30
2021,08,13,01,15,24.30
2021,08,13,01,16,24.30
2021,08,13,01,17,24.20
2021,08,13,01,18,24.20
2021,08,13,01,19,24.20
2021,08,13,01,20,24.10
2021,08,13,01,21,24.10
2021,08,13,01,22,24.00
2021,08,13,01,23,24.00
2021,08,13,01,24,23.90
2021,08,13,01,25,23.80
2021,08,13,01,26,23.70
2021,08,13,01,27,23.60
2021,08,13,01,28,23.60
2021,08,13,01,29,23.60
2021,08,13,01,30,23.60
2021,08,13,01,31,23.60
2021,08,13,01,32,23.60
2021,08,13,01,33,23.60
2021,08,13,01,34,23.70
2021,08,13,01,35,23.70
2021,08,13,01,36,23.80
2021,08,13,01,37,23.80
2021,08,13,01,38,23.90
2021,08,13,01,39,24.00
2021,08,13,01,40,24.00
2021,08,13,01,41,24.00
2021,08,13,01,42,24.10
2021,08,13,01,43,24.10
2021,08,13,01,44,24.10
2021,08,13,01,45,24.10
2021,08,13,01,46,24.10
2021,08,13,01,47,24.10
2021,08,13,01,48,24.10
2021,08,13,01,49,24.00
2021,08,13,01,50,24.00
2021,08,13,01,51,24.00
2021,08,13,01,52,24.00
2021,08,13,01,53,24.00
2021,08,13,01,54,24.00
2021,08,13,01,55,24.00
2021,08,13,01,56,23.90
2021,08,13,01,57,23.90
2021,08,13,01,58,23.90
2021,08,13,01,59,23.90
2021,08,13,02,00,23.90
2021,08,13,02,01,23.90
2021,08,13,02,02,23.80
2021,08,13,02,03,23.80
2021,08,13,02,04,23.70
2021,08,13,02,05,23.60
2021,08,13,02,06,23.50
2021,08,13,02,07,23.40
2021,08,13,02,08,23.30
2021,08,13,02,09,23.20
2021,08,13,02,10,23.10
2021,08,13,02,11,23.10
2021,08,13,02,12,23.00
2021,08,13,02,13,23.00
2021,08,13,02,14,22.90
2021,08,13,02,15,22.90
2021,08,13,02,16,22.80
2021,08,13,02,17,22.80
2021,08,13,02,18,22.80
2021,08,13,02,19,22.80
2021,08,13,02,20,22.80
2021,08,13,02,21,22.80
2021,08,13,02,22,22.80
2021,08,13,02,23,22.80
2021,08,13,02,24,22.80
2021,08,13,02,25,22.80
2021,08,13,02,26,22.90
2021,08,13,02,27,22.90
2021,08,13,02,28,22.90
2021,08,13,02,29,22.90
2021,08,13,02,30,22.90
2021,08,13,02,31,22.90
2021,08,13,02,32,22.90
2021,08,13,02,33,22.90
2021,08,13,02,34,22.90
2021,08,13,02,35,22.90
2021,08,13,02,36,22.90
2021,08,13,02,37,22.90
2021,08,13,02,38,22.90
2021,08,13,02,39,22.90
2021,08,13,02,40,22.90
2021,08,13,02,41,22.90
2021,08,13,02,42,22.90
2021,08,13,02,43,22.80
2021,08,13,02,44,22.80
2021,08,13,02,45,22.80
2021,08,13,02,46,22.80
2021,08,13,02,47,22.70
2021,08,13,02,48,22.70
2021,08,13,02,49,22.60
2021,08,13,02,50,22.60
2021,08,13,02,51,22.60
2021,08,13,02,52,22.50
2021,08,13,02,53,22.50
2021,08,13,02,54,22.40
2021,08,13,02,55,22.40
2021,08,13,02,56,22.40
2021,08,13,02,57,22.40
2021,08,13,02,58,22.30
2021,08,13,02,59,22.30
2021,08,13,03,00,22.30
2021,08,13,03,01,22.40
2021,08,13,03,02,22.40
2021,08,13,03,03,22.50
2021,08,13,03,04,22.50
2021,08,13,03,05,22.50
2021,08,13,03,06,22.60
2021,08,13,03,07,22.60
2021,08,13,03,08,22.60
2021,08,13,03,09,22.60
2021,08,13,03,10,22.70
2021,08,13,03,11,22.70
2021,08,13,03,12,22.70
2021,08,13,03,13,22.70
2021,08,13,03,14,22.70
2021,08,13,03,15,22.70
2021,08,13,03,16,22.70
2021,08,13,03,17,22.70
2021,08,13,03,18,22.60
2021,08,13,03,19,22.60
2021,08,13,03,20,22.60
2021,08,13,03,21,22.60
2021,08,13,03,22,22.60
2021,08,13,03,23,22.50
2021,08,13,03,24,22.60
2021,08,13,03,25,22.60
2021,08,13,03,26,22.60
2021,08,13,03,27,22.60
2021,08,13,03,28,22.60
2021,08,13,03,29,22.60
2021,08,13,03,30,22.70
2021,08,13,03,31,22.70
2021,08,13,03,32,22.70
2021,08,13,03,33,22.80
2021,08,13,03,34,22.80
2021,08,13,03,35,22.80
2021,08,13,03,36,22.70
2021,08,13,03,37,22.70
2021,08,13,03,38,22.70
2021,08,13,03,39,22.70
2021,08,13,03,40,22.60
2021,08,13,03,41,22.60
2021,08,13,03,42,22.60
2021,08,13,03,43,22.60
2021,08,13,03,44,22.60
2021,08,13,03,45,22.60
2021,08,13,03,46,22.60
2021,08,13,03,47,22.60
2021,08,13,03,48,22.60
2021,08,13,03,49,22.60
2021,08,13,03,50,22.50
2021,08,13,03,51,22.50
2021,08,13,03,52,22.50
2021,08,13,03,53,22.50
2021,08,13,03,54,22.50
2021,08,13,03,55,22.50
2021,08,13,03,56,22.40
2021,08,13,03,57,22.40
2021,08,13,03,58,22.40
2021,08,13,03,59,22.40
2021,08,13,04,00,22.40
2021,08,13,04,01,22.30
2021,08,13,04,02,22.30
2021,08,13,04,03,22.30
2021,08,13,04,04,22.20
2021,08,13,04,05,22.20
2021,08,13,04,06,22.20
2021,08,13,04,07,22.20
2021,08,13,04,08,22.10
2021,08,13,04,09,22.10
2021,08,13,04,10,22.10
2021,08,13,04,11,22.00
2021,08,13,04,12,22.00
2021,08,13,04,13,22.00
2021,08,13,04,14,22.00
2021,08,13,04,15,22.00
2021,08,13,04,16,22.00
2021,08,13,04,17,21.90
2021,08,13,04,18,21.90
2021,08,13,04,19,21.90
2021,08,13,04,20,21.90
2021,08,13,04,21,21.90
2021,08,13,04,22,21.90
2021,08,13,04,23,21.90
2021,08,13,04,24,21.90
2021,08,13,04,25,21.90
2021,08,13,04,26,21.90
2021,08,13,04,27,22.00
2021,08,13,04,28,21.90
2021,08,13,04,29,22.00
2021,08,13,04,30,22.00
2021,08,13,04,31,22.00
2021,08,13,04,32,22.00
2021,08,13,04,33,21.90
2021,08,13,04,34,21.90
2021,08,13,04,35,21.90
2021,08,13,04,36,21.90
2021,08,13,04,37,21.90
2021,08,13,04,38,21.90
2021,08,13,04,39,21.80
2021,08,13,04,40,21.80
2021,08,13,04,41,21.80
2021,08,13,04,42,21.70
2021,08,13,04,43,21.70
2021,08,13,04,44,21.70
2021,08,13,04,45,21.70
2021,08,13,04,46,21.70
2021,08,13,04,47,21.70
2021,08,13,04,48,21.70
2021,08,13,04,49,21.70
2021,08,13,04,50,21.70
2021,08,13,04,51,21.70
2021,08,13,04,52,21.70
2021,08,13,04,53,21.70
2021,08,13,04,54,21.70
2021,08,13,04,55,21.60
2021,08,13,04,56,21.60
2021,08,13,04,57,21.60
2021,08,13,04,58,21.60
2021,08,13,04,59,21.60
2021,08,13,05,00,21.50
2021,08,13,05,01,21.50
2021,08,13,05,02,21.40
2021,08,13,05,03,21.40
2021,08,13,05,04,21.40
2021,08,13,05,05,21.40
2021,08,13,05,06,21.40
2021,08,13,05,07,21.30
2021,08,13,05,08,21.30
2021,08,13,05,09,21.30
2021,08,13,05,10,21.20
2021,08,13,05,11,21.20
2021,08,13,05,12,21.20
2021,08,13,05,13,21.20
2021,08,13,05,14,21.20
2021,08,13,05,15,21.20
2021,08,13,05,16,21.20
2021,08,13,05,17,21.20
2021,08,13,05,18,21.20
2021,08,13,05,19,21.20
2021,08,13,05,20,21.20
2021,08,13,05,21,21.20
2021,08,13,05,22,21.10
2021,08,13,05,23,21.10
2021,08,13,05,24,21.10
2021,08,13,05,25,21.10
2021,08,13,05,26,21.10
2021,08,13,05,27,21.10
2021,08,13,05,28,21.10
2021,08,13,05,29,21.10
2021,08,13,05,30,21.10
2021,08,13,05,31,21.10
2021,08,13,05,32,21.00
2021,08,13,05,33,21.00
2021,08,13,05,34,21.00
2021,08,13,05,35,21.00
2021,08,13,05,36,20.90
2021,08,13,05,37,20.90
2021,08,13,05,38,20.90
2021,08,13,05,39,20.90
2021,08,13,05,40,20.80
2021,08,13,05,41,20.80
2021,08,13,05,42,20.80
2021,08,13,05,43,20.80
2021,08,13,05,44,20.80
2021,08,13,05,45,20.70
2021,08,13,05,46,20.70
2021,08,13,05,47,20.70
2021,08,13,05,48,20.70
2021,08,13,05,49,20.60
2021,08,13,05,50,20.60
2021,08,13,05,51,20.60
2021,08,13,05,52,20.60
2021,08,13,05,53,20.60
2021,08,13,05,54,20.50
2021,08,13,05,55,20.50
2021,08,13,05,56,20.50
2021,08,13,05,57,20.50
2021,08,13,05,58,20.50
2021,08,13,05,59,20.40
2021,08,13,06,00,20.40
2021,08,13,06,01,20.40
2021,08,13,06,02,20.40
2021,08,13,06,03,20.40
2021,08,13,06,04,20.40
2021,08,13,06,05,20.40
2021,08,13,06,06,20.40
2021,08,13,06,07,20.30
2021,08,13,06,08,20.30
2021,08,13,06,09,20.30
2021,08,13,06,10,20.30
2021,08,13,06,11,20.30
2021,08,13,06,12,20.30
2021,08,13,06,13,20.30
2021,08,13,06,14,20.30
2021,08,13,06,15,20.30
2021,08,13,06,16,20.30
2021,08,13,06,17,20.30
2021,08,13,06,18,20.30
2021,08,13,06,19,20.30
2021,08,13,06,20,20.30
2021,08,13,06,21,20.30
2021,08,13,06,22,20.30
2021,08,13,06,23,20.30
2021,08,13,06,24,20.30
2021,08,13,06,25,20.30
2021,08,13,06,26,20.30
2021,08,13,06,27,20.30
2021,08,13,06,28,20.30
2021,08,13,06,29,20.20
2021,08,13,06,30,20.20
2021,08,13,06,31,20.20
2021,08,13,06,32,20.20
2021,08,13,06,33,20.20
2021,08,13,06,34,20.20
2021,08,13,06,35,20.20
2021,08,13,06,36,20.20
2021,08,13,06,37,20.20
2021,08,13,06,38,20.20
2021,08,13,06,39,20.20
2021,08,13,06,40,20.20
2021,08,13,06,41,20.20
2021,08,13,06,42,20.20
2021,08,13,06,43,20.20
2021,08,13,06,44,20.20
2021,08,13,06,45,20.20
2021,08,13,06,46,20.20
2021,08,13,06,47,20.20
2021,08,13,06,48,20.20
2021,08,13,06,49,20.20
2021,08,13,06,50,20.20
2021,08,13,06,51,20.20
2021,08,13,06,52,20.10
2021,08,13,06,53,20.10
2021,08,13,06,54,20.10
2021,08,13,06,55,20.20
2021,08,13,06,56,20.20
2021,08,13,06,57,20.10
2021,08,13,06,58,20.20
2021,08,13,06,59,20.20
2021,08,13,07,00,20.20
2021,08,13,07,01,20.20
2021,08,13,07,02,20.20
2021,08,13,07,03,20.20
2021,08,13,07,04,20.20
2021,08,13,07,05,20.20
2021,08,13,07,06,20.20
2021,08,13,07,07,20.20
2021,08,13,07,08,20.20
2021,08,13,07,09,20.20
2021,08,13,07,10,20.20
2021,08,13,07,11,20.20
2021,08,13,07,12,20.20
2021,08,13,07,13,20.20
2021,08,13,07,14,20.20
2021,08,13,07,15,20.20
2021,08,13,07,16,20.20
2021,08,13,07,17,20.20
2021,08,13,07,18,20.20
2021,08,13,07,19,20.20
2021,08,13,07,20,20.30
2021,08,13,07,21,20.30
2021,08,13,07,22,20.30
2021,08,13,07,23,20.30
2021,08,13,07,24,20.30
2021,08,13,07,25,20.30
2021,08,13,07,26,20.30
2021,08,13,07,27,20.30
2021,08,13,07,28,20.30
2021,08,13,07,29,20.30
2021,08,13,07,30,20.30
2021,08,13,07,31,20.30
2021,08,13,07,32,20.30
2021,08,13,07,33,20.30
2021,08,13,07,34,20.40
2021,08,13,07,35,20.40
2021,08,13,07,36,20.40
2021,08,13,07,37,20.40
2021,08,13,07,38,20.40
2021,08,13,07,39,20.40
2021,08,13,07,40,20.40
2021,08,13,07,41,20.40
2021,08,13,07,42,20.40
2021,08,13,07,43,20.40
2021,08,13,07,44,20.50
2021,08,13,07,45,20.50
2021,08,13,07,46,20.60
2021,08,13,07,47,20.60
2021,08,13,07,48,20.60
2021,08,13,07,49,20.60
2021,08,13,07,50,20.60
2021,08,13,07,51,20.60
2021,08,13,07,52,20.70
2021,08,13,07,53,20.70
2021,08,13,07,54,20.70
2021,08,13,07,55,20.80
2021,08,13,07,56,20.80
2021,08,13,07,57,20.80
2021,08,13,07,58,20.80
2021,08,13,07,59,20.80
2021,08,13,08,00,20.80
2021,08,13,08,01,20.90
2021,08,13,08,02,20.90
2021,08,13,08,03,20.90
2021,08,13,08,04,20.90
2021,08,13,08,05,20.90
2021,08,13,08,06,21.00
2021,08,13,08,07,21.10
2021,08,13,08,08,21.10
2021,08,13,08,09,21.20
2021,08,13,08,10,21.20
2021,08,13,08,11,21.30
2021,08,13,08,12,21.40
2021,08,13,08,13,21.50
2021,08,13,08,14,21.50
2021,08,13,08,15,21.60
2021,08,13,08,16,21.70
2021,08,13,08,17,21.80
2021,08,13,08,18,21.90
2021,08,13,08,19,22.00
2021,08,13,08,20,22.00
2021,08,13,08,21,22.10
2021,08,13,08,22,22.10
2021,08,13,08,23,22.20
2021,08,13,08,24,22.20
2021,08,13,08,25,22.20
2021,08,13,08,26,22.30
2021,08,13,08,27,22.30
2021,08,13,08,28,22.30
2021,08,13,08,29,22.40
2021,08,13,08,30,22.40
2021,08,13,08,31,22.40
2021,08,13,08,32,22.40
2021,08,13,08,33,22.40
2021,08,13,08,34,22.40
2021,08,13,08,35,22.40
2021,08,13,08,36,22.40
2021,08,13,08,37,22.40
2021,08,13,08,38,22.50
2021,08,13,08,39,22.50
2021,08,13,08,40,22.50
2021,08,13,08,41,22.50
2021,08,13,08,42,22.50
2021,08,13,08,43,22.50
2021,08,13,08,44,22.50
2021,08,13,08,45,22.50
2021,08,13,08,46,22.60
2021,08,13,08,47,22.50
2021,08,13,08,48,22.60
2021,08,13,08,49,22.60
2021,08,13,08,50,22.60
2021,08,13,08,51,22.60
2021,08,13,08,52,22.60
2021,08,13,08,54,22.70
2021,08,13,08,55,22.70
2021,08,13,08,56,22.80
2021,08,13,08,57,22.80
2021,08,13,08,58,22.80
2021,08,13,08,59,22.80
2021,08,13,09,00,22.90
2021,08,13,09,01,22.90
2021,08,13,09,02,22.90
2021,08,13,09,03,22.90
2021,08,13,09,04,23.00
2021,08,13,09,05,23.00
2021,08,13,09,06,23.00
2021,08,13,09,07,23.10
2021,08,13,09,08,23.10
2021,08,13,09,09,23.10
2021,08,13,09,10,23.10
2021,08,13,09,11,23.20
2021,08,13,09,12,23.20
2021,08,13,09,13,23.20
2021,08,13,09,14,23.20
2021,08,13,09,15,23.30
2021,08,13,09,16,23.30
2021,08,13,09,17,23.30
2021,08,13,09,18,23.40
2021,08,13,09,19,23.40
2021,08,13,09,20,23.40
2021,08,13,09,21,23.40
2021,08,13,09,22,23.40
2021,08,13,09,23,23.50
2021,08,13,09,24,23.50
2021,08,13,09,25,23.50
2021,08,13,09,26,23.60
2021,08,13,09,27,23.60
2021,08,13,09,28,23.60
2021,08,13,09,29,23.70
2021,08,13,09,30,23.70
2021,08,13,09,31,23.80
2021,08,13,09,32,23.90
2021,08,13,09,33,23.90
2021,08,13,09,34,24.00
2021,08,13,09,35,24.00
2021,08,13,09,36,24.10
2021,08,13,09,37,24.20
2021,08,13,09,38,24.30
2021,08,13,09,39,24.40
2021,08,13,09,40,24.50
2021,08,13,09,41,24.60
2021,08,13,09,42,24.60
2021,08,13,09,43,24.70
2021,08,13,09,44,24.80
2021,08,13,09,45,24.80
2021,08,13,09,46,24.90
2021,08,13,09,47,24.90
2021,08,13,09,48,24.90
2021,08,13,09,49,24.90
2021,08,13,09,50,24.90
2021,08,13,09,51,24.80
2021,08,13,09,52,24.80
2021,08,13,09,53,24.70
2021,08,13,09,54,24.60
2021,08,13,09,55,24.50
2021,08,13,09,56,24.50
2021,08,13,09,57,24.40
2021,08,13,09,58,24.40
2021,08,13,09,59,24.40
2021,08,13,10,00,24.40
2021,08,13,10,01,24.40
2021,08,13,10,02,24.30
2021,08,13,10,03,24.40
2021,08,13,10,04,24.40
2021,08,13,10,05,24.40
2021,08,13,10,06,24.40
2021,08,13,10,07,24.40
2021,08,13,10,08,24.50
2021,08,13,10,09,24.50
2021,08,13,10,10,24.60
2021,08,13,10,11,24.60
2021,08,13,10,12,24.60
2021,08,13,10,13,24.70
2021,08,13,10,14,24.80
2021,08,13,10,15,24.80
2021,08,13,10,16,24.90
2021,08,13,10,17,24.90
2021,08,13,10,18,25.00
2021,08,13,10,19,25.00
2021,08,13,10,20,25.10
2021,08,13,10,21,25.10
2021,08,13,10,22,25.20
2021,08,13,10,23,25.20
2021,08,13,10,24,25.30
2021,08,13,10,25,25.30
2021,08,13,10,26,25.30
2021,08,13,10,27,25.40
2021,08,13,10,28,25.40
2021,08,13,10,29,25.50
2021,08,13,10,30,25.60
2021,08,13,10,31,25.60
2021,08,13,10,32,25.70
2021,08,13,10,33,25.70
2021,08,13,10,34,25.80
2021,08,13,10,35,25.80
2021,08,13,10,36,25.90
2021,08,13,10,37,25.90
2021,08,13,10,38,25.90
2021,08,13,10,39,26.00
2021,08,13,10,40,26.10
2021,08,13,10,41,26.10
2021,08,13,10,42,26.10
2021,08,13,10,43,26.10
2021,08,13,10,44,26.10
2021,08,13,10,45,26.10
2021,08,13,10,46,26.10
2021,08,13,10,47,26.20
2021,08,13,10,48,26.20
2021,08,13,10,49,26.20
2021,08,13,10,50,26.20
2021,08,13,10,51,26.30
2021,08,13,10,52,26.30
2021,08,13,10,53,26.40
2021,08,13,10,54,26.40
2021,08,13,10,55,26.50
2021,08,13,10,56,26.50
2021,08,13,10,57,26.50
2021,08,13,10,58,26.60
2021,08,13,10,59,26.70
2021,08,13,11,00,26.80
2021,08,13,11,01,26.80
2021,08,13,11,02,26.90
2021,08,13,11,03,27.00
2021,08,13,11,04,27.10
2021,08,13,11,05,27.20
2021,08,13,11,06,27.20
2021,08,13,11,07,27.30
2021,08,13,11,08,27.30
2021,08,13,11,09,27.40
2021,08,13,11,10,27.50
2021,08,13,11,11,27.60
2021,08,13,11,12,27.60
2021,08,13,11,13,27.70
2021,08,13,11,14,27.70
2021,08,13,11,15,27.80
2021,08,13,11,16,27.80
2021,08,13,11,17,27.90
2021,08,13,11,18,27.90
2021,08,13,11,19,28.00
2021,08,13,11,20,28.00
2021,08,13,11,21,28.00
2021,08,13,11,22,28.00
2021,08,13,11,23,28.10
2021,08,13,11,24,28.10
2021,08,13,11,25,28.20
2021,08,13,11,26,28.20
2021,08,13,11,27,28.30
2021,08,13,11,28,28.30
2021,08,13,11,29,28.40
2021,08,13,11,30,28.40
2021,08,13,11,31,28.50
2021,08,13,11,32,28.60
2021,08,13,11,33,28.60
2021,08,13,11,34,28.70
2021,08,13,11,35,28.70
2021,08,13,11,36,28.80
2021,08,13,11,37,28.80
2021,08,13,11,38,28.80
2021,08,13,11,39,28.90
2021,08,13,11,40,29.00
2021,08,13,11,41,29.00
2021,08,13,11,42,29.10
2021,08,13,11,43,29.10
2021,08,13,11,44,29.10
2021,08,13,11,45,29.00
2021,08,13,11,46,29.00
2021,08,13,11,47,28.90
2021,08,13,11,48,28.90
2021,08,13,11,49,28.90
2021,08,13,11,50,28.90
2021,08,13,11,51,29.00
2021,08,13,11,52,29.00
2021,08,13,11,53,29.10
2021,08,13,11,54,29.20
2021,08,13,11,55,29.20
2021,08,13,11,56,29.30
2021,08,13,11,57,29.40
2021,08,13,11,58,29.40
2021,08,13,11,59,29.50
2021,08,13,12,00,29.60
2021,08,13,12,01,29.60
2021,08,13,12,02,29.60
2021,08,13,12,03,29.60
2021,08,13,12,04,29.60
2021,08,13,12,05,29.60
2021,08,13,12,06,29.60
2021,08,13,12,07,29.60
2021,08,13,12,08,29.60
2021,08,13,12,09,29.60
2021,08,13,12,10,29.60
2021,08,13,12,11,29.60
2021,08,13,12,12,29.60
2021,08,13,12,13,29.60
2021,08,13,12,14,29.70
2021,08,13,12,15,29.70
2021,08,13,12,16,29.70
2021,08,13,12,17,29.70
2021,08,13,12,18,29.80
2021,08,13,12,19,29.80
2021,08,13,12,20,29.80
2021,08,13,12,21,29.80
2021,08,13,12,22,29.90
2021,08,13,12,23,29.90
2021,08,13,12,24,30.00
2021,08,13,12,25,30.00
2021,08,13,12,26,30.10
2021,08,13,12,27,30.20
2021,08,13,12,28,30.20
2021,08,13,12,29,30.30
2021,08,13,12,30,30.30
2021,08,13,12,31,30.30
2021,08,13,12,32,30.40
2021,08,13,12,33,30.40
2021,08,13,12,34,30.50
2021,08,13,12,35,30.60
2021,08,13,12,36,30.60
2021,08,13,12,37,30.70
2021,08,13,12,38,30.70
2021,08,13,12,39,30.80
2021,08,13,12,40,30.80
2021,08,13,12,41,30.80
2021,08,13,12,42,30.80
2021,08,13,12,43,30.80
2021,08,13,12,44,30.80
2021,08,13,12,45,30.80
2021,08,13,12,46,30.90
2021,08,13,12,47,30.90
2021,08,13,12,48,30.90
2021,08,13,12,49,30.80
2021,08,13,12,50,30.80
2021,08,13,12,51,30.80
2021,08,13,12,52,30.80
2021,08,13,12,53,30.80
2021,08,13,12,54,30.80
2021,08,13,12,55,30.80
2021,08,13,12,56,30.80
2021,08,13,12,57,30.80
2021,08,13,12,58,30.80
2021,08,13,12,59,30.80
2021,08,13,13,00,30.80
2021,08,13,13,01,30.80
2021,08,13,13,02,30.80
2021,08,13,13,03,30.90
2021,08,13,13,04,30.90
2021,08,13,13,05,30.90
2021,08,13,13,06,30.90
2021,08,13,13,07,31.00
2021,08,13,13,08,31.00
2021,08,13,13,09,31.00
2021,08,13,13,10,31.00
2021,08,13,13,11,31.00
2021,08,13,13,12,30.90
2021,08,13,13,13,30.90
2021,08,13,13,14,30.90
2021,08,13,13,15,30.90
2021,08,13,13,16,30.90
2021,08,13,13,17,30.90
2021,08,13,13,18,30.90
2021,08,13,13,19,30.90
2021,08,13,13,20,30.90
2021,08,13,13,21,30.90
2021,08,13,13,22,30.90
2021,08,13,13,23,30.90
2021,08,13,13,24,30.90
2021,08,13,13,25,30.90
2021,08,13,13,26,30.90
2021,08,13,13,27,30.90
2021,08,13,13,28,30.90
2021,08,13,13,29,30.90
2021,08,13,13,30,30.90
2021,08,13,13,31,31.00
2021,08,13,13,32,31.00
2021,08,13,13,33,31.10
2021,08,13,13,34,31.10
2021,08,13,13,35,31.10
2021,08,13,13,36,31.00
2021,08,13,13,37,31.00
2021,08,13,13,38,31.00
2021,08,13,13,39,30.90
2021,08,13,13,40,30.90
2021,08,13,13,41,30.80
2021,08,13,13,42,30.70
2021,08,13,13,43,30.50
2021,08,13,13,44,30.20
2021,08,13,13,45,29.90
2021,08,13,13,46,29.60
2021,08,13,13,47,29.30
2021,08,13,13,48,29.10
2021,08,13,13,49,28.90
2021,08,13,13,50,28.70
2021,08,13,13,51,28.50
2021,08,13,13,52,28.40
2021,08,13,13,53,28.30
2021,08,13,13,54,28.30
2021,08,13,13,55,28.20
2021,08,13,13,56,28.20
2021,08,13,13,57,28.20
2021,08,13,13,58,28.20
2021,08,13,13,59,28.20
2021,08,13,14,00,28.10
2021,08,13,14,01,28.10
2021,08,13,14,02,28.10
2021,08,13,14,03,28.00
2021,08,13,14,04,28.00
2021,08,13,14,05,28.00
2021,08,13,14,06,28.10
2021,08,13,14,07,28.10
2021,08,13,14,08,28.10
2021,08,13,14,09,28.10
2021,08,13,14,10,28.10
2021,08,13,14,11,28.10
2021,08,13,14,12,28.10
2021,08,13,14,13,28.10
2021,08,13,14,14,28.10
2021,08,13,14,15,28.10
2021,08,13,14,16,28.00
2021,08,13,14,17,28.00
2021,08,13,14,18,28.00
2021,08,13,14,19,27.90
2021,08,13,14,20,27.90
2021,08,13,14,21,27.90
2021,08,13,14,22,27.90
2021,08,13,14,23,27.90
2021,08,13,14,24,27.90
2021,08,13,14,25,28.00
2021,08,13,14,26,28.00
2021,08,13,14,27,28.00
2021,08,13,14,28,28.10
2021,08,13,14,29,28.20
2021,08,13,14,30,28.20
2021,08,13,14,31,28.30
2021,08,13,14,32,28.40
2021,08,13,14,33,28.50
2021,08,13,14,34,28.50
2021,08,13,14,35,28.60
2021,08,13,14,36,28.70
2021,08,13,14,37,28.80
2021,08,13,14,38,28.80
2021,08,13,14,39,28.90
2021,08,13,14,40,28.90
2021,08,13,14,41,28.90
2021,08,13,14,42,29.00
2021,08,13,14,43,29.10
2021,08,13,14,44,29.10
2021,08,13,14,45,29.20
2021,08,13,14,46,29.20
2021,08,13,14,47,29.30
2021,08,13,14,48,29.30
2021,08,13,14,49,29.40
2021,08,13,14,50,29.40
2021,08,13,14,51,29.50
2021,08,13,14,52,29.50
2021,08,13,14,53,29.60
2021,08,13,14,54,29.60
2021,08,13,14,55,29.70
2021,08,13,14,56,29.70
2021,08,13,14,57,29.70
2021,08,13,14,58,29.80
2021,08,13,14,59,29.70
2021,08,13,15,00,29.70
2021,08,13,15,01,29.80
2021,08,13,15,02,29.80
2021,08,13,15,03,29.70
2021,08,13,15,04,29.70
2021,08,13,15,05,29.70
2021,08,13,15,06,29.70
2021,08,13,15,07,29.70
2021,08,13,15,08,29.70
2021,08,13,15,09,29.70
2021,08,13,15,10,29.80
2021,08,13,15,11,29.80
2021,08,13,15,12,29.80
2021,08,13,15,13,29.80
2021,08,13,15,14,29.80
2021,08,13,15,15,29.80
2021,08,13,15,16,29.80
2021,08,13,15,17,29.80
2021,08,13,15,18,29.80
2021,08,13,15,19,29.80
2021,08,13,15,20,29.80
2021,08,13,15,21,29.80
2021,08,13,15,22,29.80
2021,08,13,15,23,29.80
2021,08,13,15,24,29.80
2021,08,13,15,25,29.80
2021,08,13,15,26,29.80
2021,08,13,15,27,29.80
2021,08,13,15,28,29.80
2021,08,13,15,29,29.80
2021,08,13,15,30,29.90
2021,08,13,15,31,29.90
2021,08,13,15,32,29.90
2021,08,13,15,33,30.00
2021,08,13,15,34,30.00
2021,08,13,15,35,30.10
2021,08,13,15,36,30.10
2021,08,13,15,37,30.20
2021,08,13,15,38,30.20
2021,08,13,15,39,30.20
2021,08,13,15,40,30.20
2021,08,13,15,41,30.30
2021,08,13,15,42,30.20
2021,08,13,15,43,30.20
2021,08,13,15,44,30.20
2021,08,13,15,45,30.10
2021,08,13,15,46,30.00
2021,08,13,15,47,29.90
2021,08,13,15,48,29.80
2021,08,13,15,49,29.80
2021,08,13,15,50,29.70
2021,08,13,15,51,29.70
2021,08,13,15,52,29.60
2021,08,13,15,53,29.60
2021,08,13,15,54,29.60
2021,08,13,15,55,29.60
2021,08,13,15,56,29.60
2021,08,13,15,57,29.60
2021,08,13,15,58,29.60
2021,08,13,15,59,29.60
2021,08,13,16,00,29.70
2021,08,13,16,01,29.70
2021,08,13,16,02,29.70
2021,08,13,16,03,29.70
2021,08,13,16,04,29.70
2021,08,13,16,05,29.80
2021,08,13,16,06,29.80
2021,08,13,16,07,29.80
2021,08,13,16,08,29.80
2021,08,13,16,09,29.80
2021,08,13,16,10,29.80
2021,08,13,16,11,29.80
2021,08,13,16,12,29.80
2021,08,13,16,13,29.70
2021,08,13,16,14,29.70
2021,08,13,16,15,29.60
2021,08,13,16,16,29.60
2021,08,13,16,17,29.60
2021,08,13,16,18,29.50
2021,08,13,16,19,29.50
2021,08,13,16,20,29.50
2021,08,13,16,21,29.50
2021,08,13,16,22,29.50
2021,08,13,16,23,29.50
2021,08,13,16,24,29.50
2021,08,13,16,25,29.50
2021,08,13,16,26,29.50
2021,08,13,16,27,29.50
2021,08,13,16,28,29.50
2021,08,13,16,29,29.40
2021,08,13,16,30,29.40
2021,08,13,16,31,29.40
2021,08,13,16,32,29.40
2021,08,13,16,33,29.30
2021,08,13,16,34,29.30
2021,08,13,16,35,29.30
2021,08,13,16,36,29.30
2021,08,13,16,37,29.30
2021,08,13,16,38,29.30
2021,08,13,16,39,29.30
2021,08,13,16,40,29.20
2021,08,13,16,41,29.20
2021,08,13,16,42,29.20
2021,08,13,16,43,29.30
2021,08,13,16,44,29.30
2021,08,13,16,45,29.30
2021,08,13,16,46,29.30
2021,08,13,16,47,29.30
2021,08,13,16,48,29.30
2021,08,13,16,49,29.30
2021,08,13,16,50,29.30
2021,08,13,16,51,29.30
2021,08,13,16,52,29.30
2021,08,13,16,53,29.30
2021,08,13,16,54,29.30
2021,08,13,16,55,29.30
2021,08,13,16,56,29.30
2021,08,13,16,57,29.30
2021,08,13,16,58,29.30
2021,08,13,16,59,29.30
2021,08,13,17,00,29.40
2021,08,13,17,01,29.40
2021,08,13,17,02,29.40
2021,08,13,17,03,29.40
2021,08,13,17,04,29.40
2021,08,13,17,05,29.40
2021,08,13,17,06,29.40
2021,08,13,17,07,29.40
2021,08,13,17,08,29.40
2021,08,13,17,09,29.30
2021,08,13,17,10,29.30
2021,08,13,17,11,29.30
2021,08,13,17,12,29.30
2021,08,13,17,13,29.30
2021,08,13,17,14,29.30
2021,08,13,17,15,29.30
2021,08,13,17,16,29.30
2021,08,13,17,17,29.30
2021,08,13,17,18,29.30
2021,08,13,17,19,29.30
2021,08,13,17,20,29.30